{"data":{"norad_id":58302,"epoch":"2026-09-21T22:48:33.856704Z","epoch_age_seconds":116665,"freshness":"FRESH","line1":"1 58302U 23174AY  26264.95039186  .00059011  00000+0  65846-3 0  9993","line2":"2 58302  97.3727 352.8505 0007287 200.0452 160.0521 15.62585006160404","mean_motion":15.62585006,"eccentricity":0.0007287,"inclination_deg":97.3727,"raan_deg":352.8505,"arg_perigee_deg":200.0452,"mean_anomaly_deg":160.0521,"bstar":0.00065846,"rev_number":16040,"period_min":92.154986414864,"perigee_km":375.26839548418,"apogee_km":385.1179859041,"semimajor_km":6758.3301906941,"source":"CELESTRAK","updated_at":"2026-09-22T09:00:26.581101Z"}}